TimeCDT,TemperatureF,Dew PointF,Humidity,Sea Level PressureIn,VisibilityMPH,Wind Direction,Wind SpeedMPH,Gust SpeedMPH,PrecipitationIn,Events,Conditions,WindDirDegrees,DateUTC
12:15 AM,76.3,52.3,43,30.10,10.0,ESE,6.9,-,N/A,,Clear,120,2013-06-29 05:15:00
12:35 AM,73.4,53.6,50,30.10,10.0,ESE,6.9,-,N/A,,Clear,120,2013-06-29 05:35:00
12:55 AM,73.4,53.8,50,30.10,10.0,SE,8.1,-,N/A,,Clear,130,2013-06-29 05:55:00
1:15 AM,72.5,53.8,52,30.10,10.0,SE,5.8,-,N/A,,Clear,130,2013-06-29 06:15:00
1:35 AM,71.1,54.7,56,30.10,10.0,SE,5.8,-,N/A,,Clear,130,2013-06-29 06:35:00
1:55 AM,71.6,53.2,52,30.10,10.0,SE,6.9,-,N/A,,Clear,130,2013-06-29 06:55:00
2:15 AM,70.9,55.0,57,30.10,10.0,SE,5.8,-,N/A,,Clear,130,2013-06-29 07:15:00
2:35 AM,70.9,54.7,56,30.10,10.0,ESE,4.6,-,N/A,,Clear,120,2013-06-29 07:35:00
2:55 AM,70.3,54.0,56,30.10,10.0,SE,6.9,-,N/A,,Clear,140,2013-06-29 07:55:00
3:15 AM,69.4,53.8,57,30.09,10.0,SE,8.1,-,N/A,,Clear,130,2013-06-29 08:15:00
3:35 AM,70.3,53.6,55,30.11,10.0,ESE,4.6,-,N/A,,Clear,110,2013-06-29 08:35:00
3:55 AM,72.1,52.9,51,30.11,10.0,ENE,8.1,-,N/A,,Clear,60,2013-06-29 08:55:00
4:15 AM,71.8,54.1,54,30.14,10.0,North,3.5,-,N/A,,Clear,10,2013-06-29 09:15:00
4:35 AM,70.9,54.5,56,30.14,10.0,NW,4.6,-,N/A,,Clear,310,2013-06-29 09:35:00
4:55 AM,69.8,56.7,63,30.15,10.0,WNW,6.9,-,N/A,,Clear,300,2013-06-29 09:55:00
5:15 AM,69.8,56.8,63,30.14,10.0,NNW,6.9,-,N/A,,Clear,340,2013-06-29 10:15:00
5:35 AM,69.8,56.7,63,30.12,10.0,Calm,Calm,-,N/A,,Clear,0,2013-06-29 10:35:00
5:55 AM,74.5,53.6,48,30.07,10.0,South,19.6,-,N/A,,Clear,190,2013-06-29 10:55:00
6:15 AM,74.3,53.8,49,30.07,10.0,SW,17.3,-,N/A,,Clear,220,2013-06-29 11:15:00
6:35 AM,74.5,53.6,48,30.10,10.0,South,8.1,-,N/A,,Clear,170,2013-06-29 11:35:00
6:55 AM,73.6,53.2,49,30.11,10.0,East,9.2,-,N/A,,Clear,80,2013-06-29 11:55:00
7:15 AM,74.5,53.8,48,30.12,10.0,East,10.4,-,N/A,,Clear,90,2013-06-29 12:15:00
7:35 AM,75.6,54.1,47,30.15,10.0,NE,8.1,-,N/A,,Clear,40,2013-06-29 12:35:00
7:55 AM,73.4,54.1,51,30.14,10.0,ENE,8.1,-,N/A,,Clear,60,2013-06-29 12:55:00
8:15 AM,74.1,54.7,51,30.13,10.0,East,11.5,-,N/A,,Clear,100,2013-06-29 13:15:00
8:35 AM,74.1,54.7,51,30.15,7.0,ENE,11.5,-,N/A,,Clear,70,2013-06-29 13:35:00
8:55 AM,77.0,54.9,46,30.14,10.0,East,13.8,18.4,N/A,,Clear,90,2013-06-29 13:55:00
9:15 AM,78.1,54.7,44,30.14,10.0,East,18.4,-,N/A,,Clear,100,2013-06-29 14:15:00
9:35 AM,78.1,55.4,45,30.12,5.0,ESE,18.4,24.2,N/A,,Haze,120,2013-06-29 14:35:00
9:55 AM,77.9,55.8,46,30.11,7.0,SE,18.4,-,N/A,,Clear,130,2013-06-29 14:55:00
10:15 AM,80.8,56.1,43,30.14,7.0,ESE,16.1,21.9,N/A,,Clear,120,2013-06-29 15:15:00
10:35 AM,81.9,56.5,42,30.15,7.0,SE,15.0,19.6,N/A,,Clear,130,2013-06-29 15:35:00
10:55 AM,82.4,56.3,41,30.15,7.0,ESE,15.0,18.4,N/A,,Clear,120,2013-06-29 15:55:00
11:15 AM,82.9,57.0,41,30.14,10.0,SE,15.0,20.7,N/A,,Clear,130,2013-06-29 16:15:00
11:35 AM,84.2,56.8,39,30.15,10.0,East,12.7,-,N/A,,Clear,100,2013-06-29 16:35:00
11:55 AM,84.4,56.3,38,30.15,10.0,East,9.2,-,N/A,,Clear,100,2013-06-29 16:55:00
12:15 PM,84.2,56.3,38,30.14,10.0,SE,9.2,-,N/A,,Clear,130,2013-06-29 17:15:00
12:35 PM,85.5,57.4,38,30.13,10.0,ESE,11.5,24.2,N/A,,Clear,120,2013-06-29 17:35:00
12:55 PM,86.7,57.0,36,30.12,10.0,SE,6.9,-,N/A,,Clear,130,2013-06-29 17:55:00
1:15 PM,87.6,56.7,35,30.11,10.0,ESE,13.8,18.4,N/A,,Clear,120,2013-06-29 18:15:00
1:35 PM,88.0,56.5,34,30.10,10.0,ESE,9.2,-,N/A,,Clear,120,2013-06-29 18:35:00
1:55 PM,90.0,57.0,33,30.10,10.0,South,10.4,16.1,N/A,,Clear,180,2013-06-29 18:55:00
2:15 PM,89.4,56.3,32,30.09,10.0,East,5.8,-,N/A,,Clear,90,2013-06-29 19:15:00
2:35 PM,90.7,56.5,31,30.08,10.0,East,8.1,-,N/A,,Clear,80,2013-06-29 19:35:00
2:55 PM,91.2,56.5,31,30.07,10.0,East,10.4,16.1,N/A,,Clear,100,2013-06-29 19:55:00
3:15 PM,92.8,57.4,30,30.06,10.0,ESE,12.7,19.6,N/A,,Clear,120,2013-06-29 20:15:00
3:35 PM,92.3,56.5,30,30.06,10.0,East,11.5,19.6,N/A,,Clear,80,2013-06-29 20:35:00
3:55 PM,92.5,56.7,30,30.05,10.0,East,11.5,18.4,N/A,,Clear,100,2013-06-29 20:55:00
4:15 PM,92.7,56.3,29,30.03,10.0,ESE,10.4,18.4,N/A,,Clear,110,2013-06-29 21:15:00
4:35 PM,93.2,55.4,28,30.03,10.0,ESE,9.2,-,N/A,,Clear,110,2013-06-29 21:35:00
4:55 PM,94.1,55.9,28,30.02,10.0,East,9.2,-,N/A,,Clear,100,2013-06-29 21:55:00
5:15 PM,91.2,56.1,30,30.02,10.0,SE,6.9,-,N/A,,Clear,140,2013-06-29 22:15:00
5:35 PM,93.6,55.4,28,30.01,10.0,East,12.7,20.7,N/A,,Clear,80,2013-06-29 22:35:00
5:55 PM,92.7,55.9,29,30.01,10.0,East,15.0,20.7,N/A,,Clear,80,2013-06-29 22:55:00
6:15 PM,92.7,55.9,29,30.01,10.0,East,15.0,20.7,N/A,,Clear,80,2013-06-29 23:15:00
6:35 PM,91.8,55.8,30,30.00,10.0,East,16.1,24.2,N/A,,Clear,80,2013-06-29 23:35:00
6:55 PM,90.3,55.6,31,30.00,10.0,ENE,12.7,-,N/A,,Clear,70,2013-06-29 23:55:00
7:15 PM,89.4,55.6,32,30.01,10.0,East,15.0,19.6,N/A,,Clear,80,2013-06-30 00:15:00
7:35 PM,88.2,55.4,33,30.01,10.0,ENE,15.0,-,N/A,,Clear,70,2013-06-30 00:35:00
7:55 PM,87.3,54.5,33,30.01,10.0,ENE,15.0,21.9,N/A,,Clear,70,2013-06-30 00:55:00
8:15 PM,86.0,54.3,34,30.02,10.0,ENE,13.8,-,N/A,,Clear,60,2013-06-30 01:15:00
8:35 PM,85.1,54.1,34,30.03,10.0,NE,13.8,18.4,N/A,,Clear,50,2013-06-30 01:35:00
8:55 PM,83.8,53.8,35,30.04,10.0,NE,10.4,-,N/A,,Clear,50,2013-06-30 01:55:00
9:15 PM,83.3,54.0,36,30.04,10.0,ENE,11.5,-,N/A,,Clear,60,2013-06-30 02:15:00
9:35 PM,82.4,53.6,37,30.04,10.0,East,9.2,-,N/A,,Clear,80,2013-06-30 02:35:00
9:55 PM,82.4,53.8,37,30.05,10.0,ENE,10.4,-,N/A,,Clear,70,2013-06-30 02:55:00
10:15 PM,81.5,54.1,39,30.06,10.0,East,9.2,-,N/A,,Clear,80,2013-06-30 03:15:00
10:35 PM,81.1,54.0,39,30.07,10.0,ESE,10.4,-,N/A,,Clear,110,2013-06-30 03:35:00
10:55 PM,75.9,57.6,53,30.12,5.0,West,26.5,33.4,N/A,Rain,Light Rain,280,2013-06-30 03:55:00
11:15 PM,66.6,60.8,82,30.14,7.0,SW,25.3,34.5,0.05,Rain,Rain,230,2013-06-30 04:15:00
11:35 PM,65.3,62.6,91,30.14,10.0,SW,17.3,-,0.05,,Scattered Clouds,230,2013-06-30 04:35:00
11:55 PM,66.9,63.0,87,30.12,10.0,WSW,12.7,-,0.05,,Clear,240,2013-06-30 04:55:00